TimePDT,TemperatureF,Dew PointF,Humidity,Sea Level PressureIn,VisibilityMPH,Wind Direction,Wind SpeedMPH,Gust SpeedMPH,PrecipitationIn,Events,Conditions,WindDirDegrees,DateUTC
12:15 AM,30.2,24.8,80,30.23,10.0,West,10.4,-,N/A,,Clear,270,2013-10-14 07:15:00
12:35 AM,30.2,24.8,80,30.24,10.0,West,9.2,-,N/A,,Clear,280,2013-10-14 07:35:00
12:55 AM,28.4,24.8,86,30.24,10.0,WNW,6.9,-,N/A,,Clear,300,2013-10-14 07:55:00
1:15 AM,28.4,24.8,86,30.24,10.0,West,10.4,-,N/A,,Clear,280,2013-10-14 08:15:00
1:35 AM,28.4,24.8,86,30.25,10.0,West,11.5,-,N/A,,Clear,280,2013-10-14 08:35:00
1:55 AM,26.6,24.8,93,30.24,10.0,West,10.4,-,N/A,,Clear,280,2013-10-14 08:55:00
2:15 AM,28.4,24.8,86,30.25,10.0,West,6.9,-,N/A,,Clear,280,2013-10-14 09:15:00
2:35 AM,24.8,23.0,93,30.25,10.0,NW,4.6,-,N/A,,Clear,310,2013-10-14 09:35:00
2:55 AM,26.6,24.8,93,30.24,10.0,WNW,5.8,-,N/A,,Clear,300,2013-10-14 09:55:00
3:15 AM,24.8,23.0,93,30.24,10.0,NNW,3.5,-,N/A,,Clear,330,2013-10-14 10:15:00
3:35 AM,24.8,23.0,93,30.23,10.0,West,9.2,-,N/A,,Clear,270,2013-10-14 10:35:00
3:55 AM,24.8,23.0,93,30.23,10.0,WNW,6.9,-,N/A,,Clear,290,2013-10-14 10:55:00
4:15 AM,24.8,21.2,86,30.24,10.0,NW,3.5,-,N/A,,Clear,320,2013-10-14 11:15:00
4:35 AM,23.0,21.2,93,30.24,10.0,Calm,Calm,-,N/A,,Clear,0,2013-10-14 11:35:00
4:55 AM,23.0,19.4,86,30.24,10.0,North,-9999.0,-,N/A,,Clear,0,2013-10-14 11:55:00
5:15 AM,23.0,21.2,93,30.24,10.0,North,-9999.0,-,N/A,,Clear,0,2013-10-14 12:15:00
5:35 AM,23.0,19.4,86,30.25,10.0,Calm,Calm,-,N/A,,Clear,0,2013-10-14 12:35:00
5:55 AM,21.2,19.4,93,30.25,10.0,NW,5.8,-,N/A,,Clear,310,2013-10-14 12:55:00
6:15 AM,21.2,17.6,86,30.26,10.0,NW,5.8,-,N/A,,Clear,320,2013-10-14 13:15:00
6:35 AM,19.4,17.6,93,30.26,10.0,Calm,Calm,-,N/A,,Clear,0,2013-10-14 13:35:00
6:55 AM,21.2,15.8,80,30.27,10.0,NNW,3.5,-,N/A,,Clear,340,2013-10-14 13:55:00
7:15 AM,19.4,15.8,86,30.27,10.0,North,3.5,-,N/A,,Clear,360,2013-10-14 14:15:00
7:35 AM,19.4,17.6,93,30.27,10.0,NNW,4.6,-,N/A,,Clear,340,2013-10-14 14:35:00
7:55 AM,23.0,17.6,80,30.28,10.0,North,-9999.0,-,N/A,,Clear,0,2013-10-14 14:55:00
8:15 AM,28.4,19.4,69,30.28,10.0,North,3.5,-,N/A,,Clear,10,2013-10-14 15:15:00
8:35 AM,30.2,21.2,69,30.28,10.0,Calm,Calm,-,N/A,,Clear,0,2013-10-14 15:35:00
8:55 AM,33.8,21.2,60,30.28,10.0,Calm,Calm,-,N/A,,Clear,0,2013-10-14 15:55:00
9:15 AM,37.4,24.8,60,30.28,10.0,SE,4.6,-,N/A,,Clear,130,2013-10-14 16:15:00
9:35 AM,39.2,26.6,61,30.28,10.0,SE,3.5,-,N/A,,Clear,130,2013-10-14 16:35:00
9:55 AM,39.2,26.6,61,30.28,10.0,SE,6.9,-,N/A,,Clear,140,2013-10-14 16:55:00
10:15 AM,41.0,26.6,57,30.28,10.0,SE,3.5,-,N/A,,Clear,130,2013-10-14 17:15:00
10:35 AM,42.8,26.6,53,30.28,10.0,SE,3.5,-,N/A,,Clear,130,2013-10-14 17:35:00
10:55 AM,46.4,24.8,43,30.28,10.0,SE,4.6,-,N/A,,Clear,140,2013-10-14 17:55:00
11:15 AM,48.2,23.0,37,30.28,10.0,ESE,4.6,-,N/A,,Clear,120,2013-10-14 18:15:00
11:35 AM,50.0,21.2,32,30.27,10.0,SE,4.6,-,N/A,,Clear,140,2013-10-14 18:35:00
11:55 AM,50.0,17.6,28,30.27,10.0,SE,3.5,-,N/A,,Clear,130,2013-10-14 18:55:00
12:15 PM,51.8,14.0,22,30.26,10.0,Calm,Calm,-,N/A,,Clear,0,2013-10-14 19:15:00
12:35 PM,53.6,14.0,21,30.26,10.0,SSE,5.8,-,N/A,,Clear,160,2013-10-14 19:35:00
12:55 PM,53.6,10.4,18,30.25,10.0,SE,5.8,-,N/A,,Clear,140,2013-10-14 19:55:00
1:15 PM,53.6,8.6,16,30.23,10.0,SSW,8.1,-,N/A,,Clear,200,2013-10-14 20:15:00
1:35 PM,55.4,8.6,15,30.23,10.0,Calm,Calm,-,N/A,,Clear,0,2013-10-14 20:35:00
1:55 PM,55.4,8.6,15,30.22,10.0,South,8.1,-,N/A,,Clear,190,2013-10-14 20:55:00
2:15 PM,59.0,10.4,15,30.21,10.0,Calm,Calm,-,N/A,,Clear,0,2013-10-14 21:15:00
2:35 PM,59.0,10.4,15,30.21,10.0,East,3.5,-,N/A,,Clear,80,2013-10-14 21:35:00
2:55 PM,59.0,8.6,14,30.20,10.0,WSW,3.5,-,N/A,,Clear,240,2013-10-14 21:55:00
3:15 PM,59.0,10.4,15,30.20,10.0,SE,6.9,-,N/A,,Clear,140,2013-10-14 22:15:00
3:35 PM,60.8,12.2,15,30.19,10.0,SE,5.8,-,N/A,,Clear,130,2013-10-14 22:35:00
3:55 PM,59.0,15.8,19,30.19,10.0,SE,8.1,-,N/A,,Clear,130,2013-10-14 22:55:00
4:15 PM,59.0,19.4,22,30.19,10.0,ESE,11.5,-,N/A,,Clear,110,2013-10-14 23:15:00
4:35 PM,57.2,21.2,25,30.19,10.0,SE,8.1,-,N/A,,Clear,130,2013-10-14 23:35:00
4:55 PM,57.2,21.2,25,30.19,10.0,ESE,9.2,-,N/A,,Clear,120,2013-10-14 23:55:00
5:15 PM,55.4,21.2,26,30.19,10.0,ESE,11.5,-,N/A,,Clear,110,2013-10-15 00:15:00
5:35 PM,53.6,19.4,26,30.19,10.0,ESE,8.1,-,N/A,,Clear,110,2013-10-15 00:35:00
5:55 PM,50.0,19.4,30,30.20,10.0,ESE,6.9,-,N/A,,Clear,120,2013-10-15 00:55:00
6:15 PM,48.2,19.4,32,30.20,10.0,Calm,Calm,-,N/A,,Clear,0,2013-10-15 01:15:00
6:35 PM,48.2,19.4,32,30.20,10.0,ESE,5.8,-,N/A,,Clear,110,2013-10-15 01:35:00
6:55 PM,46.4,17.6,32,30.20,10.0,SSE,4.6,-,N/A,,Clear,160,2013-10-15 01:55:00
7:15 PM,44.6,17.6,34,30.21,10.0,South,3.5,-,N/A,,Clear,180,2013-10-15 02:15:00
7:35 PM,44.6,17.6,34,30.22,10.0,Calm,Calm,-,N/A,,Clear,0,2013-10-15 02:35:00
7:55 PM,44.6,15.8,31,30.22,10.0,Calm,Calm,-,N/A,,Clear,0,2013-10-15 02:55:00
8:15 PM,42.8,15.8,34,30.23,10.0,NW,5.8,-,N/A,,Clear,310,2013-10-15 03:15:00
8:35 PM,39.2,17.6,42,30.23,10.0,West,4.6,-,N/A,,Clear,260,2013-10-15 03:35:00
8:55 PM,39.2,19.4,45,30.25,10.0,West,9.2,-,N/A,,Clear,260,2013-10-15 03:55:00
9:15 PM,39.2,19.4,45,30.25,10.0,WNW,6.9,-,N/A,,Clear,290,2013-10-15 04:15:00
9:35 PM,37.4,21.2,52,30.25,10.0,West,5.8,-,N/A,,Clear,280,2013-10-15 04:35:00
9:55 PM,33.8,19.4,56,30.26,10.0,Calm,Calm,-,N/A,,Clear,0,2013-10-15 04:55:00
10:15 PM,35.6,21.2,56,30.26,10.0,NW,3.5,-,N/A,,Clear,310,2013-10-15 05:15:00
10:35 PM,33.8,21.2,60,30.26,10.0,NW,5.8,-,N/A,,Clear,320,2013-10-15 05:35:00
10:55 PM,33.8,23.0,65,30.26,10.0,West,5.8,-,N/A,,Clear,280,2013-10-15 05:55:00
11:15 PM,33.8,23.0,65,30.26,10.0,WNW,5.8,-,N/A,,Clear,290,2013-10-15 06:15:00
11:35 PM,33.8,23.0,65,30.26,10.0,West,10.4,-,N/A,,Clear,280,2013-10-15 06:35:00
11:55 PM,33.8,23.0,65,30.25,10.0,West,8.1,-,N/A,,Clear,280,2013-10-15 06:55:00